Theta_e
293 287 286 287 288 290 291 291 292 292 290 289 288 287 286 286 287 288 289 293 292 290 287 290 288 286 288 290 292 292 291 291 292 291 291 290 290 289 289 289 289 288 289 290 290 291 291 291 292 292 292 292 293 293 293 294 294 295 295 296 296 298 299 300 302 303 303 303 304 305 305 305 306 307 309 309 309 309 309 310 310 311 311 312 312 310
291 287 286 290 292 292 293 291 290 289 289 288 287 285 285 285 286 288 290 290 290 290 285 285 288 288 289 291 292 291 291 291 290 290 289 289 289 289 288 288 288 288 289 289 289 290 290 290 291 291 291 292 291 291 292 292 293 293 294 294 295 296 297 297 298 300 301 301 300 301 300 301 303 304 305 306 307 307 308 307 308 309 310 310 310 309
287 287 291 292 294 292 292 291 289 289 288 287 286 285 284 286 286 289 290 289 289 289 286 284 288 289 291 290 291 291 290 290 290 290 289 289 288 288 288 287 287 287 287 288 288 288 288 289 289 290 290 290 291 291 291 291 292 292 292 293 294 294 295 296 297 298 298 298 300 300 299 300 299 300 300 301 300 303 304 304 304 305 307 307 307 307
285 286 291 294 293 291 291 291 289 289 289 287 286 284 284 286 286 283 286 288 290 290 288 287 287 288 290 290 290 290 290 289 290 290 289 289 287 287 287 287 287 286 286 286 286 287 287 288 288 288 289 289 290 290 290 290 291 291 291 292 292 293 293 294 295 296 297 297 297 297 297 298 298 297 298 299 301 301 302 302 301 301 300 302 303 302
290 292 294 293 291 291 290 290 289 287 286 284 287 286 285 285 285 286 287 288 288 288 288 286 286 285 288 289 287 289 290 289 289 289 288 289 288 288 287 287 287 286 286 285 286 286 286 286 287 287 288 288 288 288 289 289 290 291 290 291 291 292 292 292 293 294 296 297 296 297 297 297 297 297 296 295 295 295 297 299 300 300 299 300 300 299
289 294 294 291 289 289 289 289 289 288 285 284 285 289 289 287 287 286 286 287 281 283 284 287 279 277 283 286 286 287 287 287 287 286 286 287 287 286 286 286 286 286 286 285 285 285 285 286 286 286 287 287 287 287 288 289 289 290 290 290 291 291 291 291 292 293 294 294 294 293 293 292 292 291 292 291 291 292 292 293 294 295 296 297 299 298
291 293 293 293 290 288 288 288 287 290 284 285 287 288 289 288 287 285 285 284 280 279 285 285 281 277 280 285 286 286 285 285 286 285 286 286 286 285 285 285 285 285 285 285 285 285 285 285 285 286 286 286 286 286 287 288 288 289 289 289 290 290 290 291 291 291 292 291 291 291 291 290 290 289 290 290 291 291 291 292 292 292 293 293 293 295
291 291 291 291 290 288 286 287 288 290 287 284 285 286 287 286 286 285 284 285 281 281 283 285 283 280 277 284 287 286 285 284 284 284 284 285 285 285 285 285 285 285 284 284 285 285 285 285 285 284 285 285 286 286 287 287 287 287 288 288 288 289 289 289 290 290 291 290 290 289 289 290 289 289 288 289 290 290 291 291 290 291 291 291 292 292
291 288 288 289 288 287 288 288 288 290 288 285 287 285 285 286 286 284 285 282 281 282 278 279 283 280 277 281 285 286 284 282 283 283 284 284 285 285 285 285 285 285 284 284 284 284 284 284 284 285 284 285 285 286 286 286 286 287 287 288 288 288 288 288 288 289 289 290 289 288 288 288 288 289 288 289 290 289 289 289 289 289 290 290 290 290
291 292 289 289 287 287 287 285 288 291 288 289 286 286 285 284 283 283 280 282 279 279 275 280 282 278 278 280 283 284 284 283 283 284 284 284 284 284 284 284 285 284 284 284 284 284 284 284 284 284 284 284 285 285 286 285 286 286 287 287 287 286 287 287 287 287 287 288 288 287 287 287 287 287 287 288 288 288 288 288 288 288 288 289 289 289
291 292 293 291 289 288 286 286 286 289 289 287 286 284 283 281 281 279 278 277 278 274 278 282 283 283 276 280 282 283 283 284 284 283 284 284 284 284 284 284 284 284 284 283 283 284 284 283 284 284 284 284 284 284 285 285 285 285 285 285 285 286 286 286 286 286 286 286 287 286 286 286 285 286 286 285 285 286 286 286 287 287 287 288 288 288
288 289 290 288 292 289 288 287 286 285 286 286 284 282 283 281 278 276 273 276 273 271 276 279 282 283 275 277 282 283 284 285 286 284 283 283 283 284 284 284 284 284 284 283 283 283 283 283 284 283 283 283 283 284 284 284 284 285 284 285 284 285 285 286 286 285 285 285 285 285 285 285 285 285 285 284 284 284 284 284 285 286 286 286 287 287
285 287 286 289 291 292 287 286 286 282 283 284 282 281 276 274 272 272 272 272 272 273 278 279 281 280 281 282 282 283 283 284 286 286 284 283 283 283 283 284 283 283 282 282 282 282 282 282 282 282 282 283 283 283 283 283 283 284 284 284 284 284 284 285 285 285 284 284 284 284 284 285 285 284 284 284 283 284 284 284 283 283 284 284 284 285
282 281 286 288 290 290 290 286 283 284 283 283 283 279 274 272 271 266 267 267 269 274 277 281 282 280 280 281 282 282 283 283 285 285 285 284 283 283 283 283 283 282 281 281 281 281 281 281 281 282 282 282 282 282 282 282 283 282 282 283 283 283 284 284 284 284 283 283 283 283 283 284 284 283 283 283 283 283 283 283 283 283 283 283 283 283
278 280 285 288 286 289 291 290 287 281 282 284 282 285 281 272 268 268 266 272 273 275 275 278 277 273 277 280 281 282 283 283 284 284 284 283 283 283 281 281 281 281 281 281 280 281 281 281 281 281 281 281 281 281 282 282 282 282 282 282 282 282 282 283 283 283 282 282 282 282 282 283 283 283 282 282 283 283 282 283 282 282 283 283 284 284
283 281 285 289 289 290 289 289 287 284 284 283 281 283 279 279 278 276 272 270 269 273 275 275 276 276 278 282 283 282 282 282 283 282 283 282 282 281 281 282 281 281 281 280 280 281 281 281 281 281 281 281 280 280 281 281 281 281 281 280 280 281 281 281 281 281 281 281 281 280 280 281 282 282 282 281 282 282 282 282 282 282 282 283 284 284
282 281 284 289 288 288 288 289 290 287 281 282 284 280 281 282 284 276 275 278 275 273 275 271 280 280 282 282 282 282 281 281 281 281 281 281 281 280 281 281 280 280 280 280 281 280 281 281 281 282 282 283 283 283 283 283 282 281 281 280 280 280 280 280 280 280 280 280 280 280 279 280 280 280 280 280 279 280 280 280 280 281 281 281 282 283
282 279 283 286 287 288 286 287 287 286 285 285 280 281 284 285 283 279 273 270 274 272 273 276 276 277 279 275 280 280 279 280 280 280 281 280 280 280 281 280 281 281 281 281 281 281 281 282 281 282 283 283 283 284 284 284 283 282 281 280 280 280 281 281 280 281 281 281 281 281 280 279 279 279 279 280 279 280 279 279 280 279 280 280 280 281
286 281 282 286 286 287 286 289 288 288 288 285 282 285 285 277 277 278 272 270 269 268 269 271 277 277 278 279 277 279 279 280 280 280 280 280 280 280 280 281 281 281 281 281 281 281 282 282 283 283 283 283 283 283 283 284 283 283 282 281 280 281 281 281 282 281 282 282 283 283 282 281 282 282 281 281 280 279 280 280 279 279 279 280 280 280
285 279 280 285 286 287 285 285 281 283 287 285 286 285 283 281 276 273 277 272 272 267 270 268 276 275 279 279 280 282 282 281 281 280 280 281 281 281 281 282 282 282 282 281 282 282 282 282 282 282 282 283 284 284 284 283 282 282 282 282 283 282 282 282 283 282 282 283 283 282 282 282 282 282 281 280 280 280 280 280 280 280 280 280 281 280
286 282 274 282 283 286 282 284 283 284 281 283 282 280 282 280 281 279 279 276 275 268 270 272 272 275 277 281 282 283 284 283 282 281 281 281 281 281 282 282 282 281 281 280 280 280 280 280 280 281 280 281 282 281 282 283 284 284 284 283 282 281 280 279 279 278 279 280 281 280 280 280 279 279 279 278 279 279 279 280 280 280 280 280 280 280
282 284 280 277 282 282 280 283 284 284 286 282 283 281 283 279 278 276 276 280 274 278 272 275 275 279 283 287 284 284 284 283 283 283 282 282 282 282 282 282 281 281 280 280 280 280 281 281 282 283 283 283 282 282 283 282 281 281 282 282 280 279 279 279 280 279 278 279 279 278 278 278 278 279 278 277 277 278 278 279 279 279 279 279 280 280
288 285 280 278 281 283 284 288 286 287 285 284 286 284 284 282 281 275 275 276 276 278 276 276 275 277 285 284 283 283 284 284 283 283 283 283 283 283 283 282 282 282 282 283 284 283 284 284 284 283 283 283 284 284 283 283 283 283 281 281 279 279 280 279 280 279 278 278 278 277 277 276 277 277 277 277 278 277 278 278 278 279 279 279 279 279
292 284 283 283 282 281 283 283 285 286 288 286 285 282 282 282 283 283 282 279 276 274 276 274 275 281 285 284 283 282 283 283 283 283 283 284 284 283 283 284 284 284 284 284 283 283 282 282 282 281 281 281 281 281 282 282 281 280 280 279 279 278 279 279 278 279 279 279 278 276 276 276 276 276 276 276 277 276 277 277 277 278 278 278 278 278
286 285 285 279 277 278 280 281 283 285 284 279 281 282 281 281 281 279 277 276 275 277 280 275 273 279 284 283 283 283 283 283 283 283 283 284 284 284 284 283 283 283 282 281 281 281 279 279 278 279 279 279 279 279 279 279 280 279 280 279 279 279 278 277 277 277 277 277 277 276 276 275 275 275 276 276 276 276 276 276 277 277 277 277 278 278
288 283 283 278 276 274 273 273 272 277 283 282 282 281 283 282 281 280 276 279 276 281 279 276 278 282 283 282 284 284 283 283 283 284 282 282 283 283 282 281 281 281 281 280 279 278 278 278 278 278 278 278 278 279 278 278 279 279 279 279 278 278 278 278 277 276 276 276 276 276 275 276 276 276 276 276 276 276 276 277 276 276 276 276 277 277
284 282 283 284 282 280 281 276 280 282 280 278 278 279 281 281 279 279 278 277 277 280 277 278 277 277 280 281 282 282 280 282 283 283 283 283 282 281 281 281 281 281 280 279 278 278 277 277 278 278 278 278 278 278 278 279 278 278 279 279 278 278 278 278 277 277 276 276 275 276 276 276 276 276 276 276 277 277 277 277 276 276 276 276 276 276
282 281 283 281 283 282 280 281 283 285 282 280 278 279 280 278 276 277 278 275 281 277 274 282 281 276 280 282 282 282 282 282 282 282 283 283 283 282 281 280 282 279 278 277 277 277 278 279 278 278 278 277 278 278 278 278 278 278 278 278 278 277 278 278 277 276 276 276 276 276 276 276 276 276 277 277 277 277 277 277 277 277 277 277 277 276
284 282 283 283 282 283 283 283 283 282 282 280 281 280 281 281 276 274 272 280 279 277 276 280 279 277 279 281 280 281 283 283 283 283 284 284 281 279 279 279 279 278 277 277 278 278 278 278 278 278 278 278 278 277 278 278 277 277 277 277 277 277 277 277 277 276 275 275 275 275 275 276 276 276 276 276 276 276 276 276 276 277 276 276 276 277
282 276 280 280 279 280 280 279 280 279 278 278 279 280 280 279 277 277 277 279 279 278 280 280 279 279 281 281 281 282 282 282 282 282 279 278 279 280 279 279 278 277 277 278 278 278 278 278 278 278 278 278 277 277 277 276 276 277 277 277 276 277 276 275 275 275 275 275 275 275 275 275 275 275 275 275 275 275 275 275 275 275 274 274 274 274
285 277 282 277 277 274 275 278 279 278 277 276 277 277 277 275 276 278 278 278 277 277 279 279 278 277 282 282 281 282 279 278 278 279 280 279 278 279 278 278 278 278 278 278 278 278 278 277 277 277 276 276 276 276 276 277 276 276 276 276 275 275 275 274 274 274 274 274 274 274 274 274 274 274 274 274 274 273 273 273 273 272 272 272 272 272
281 275 278 274 272 268 271 275 276 273 274 272 273 275 275 274 274 276 275 277 276 275 276 275 272 276 281 281 279 279 277 278 279 278 278 278 278 278 278 278 279 279 279 279 278 277 276 276 276 276 276 275 275 276 276 276 276 275 275 275 275 274 274 274 274 274 273 273 273 273 273 273 273 272 272 272 271 271 271 270 270 270 270 270 270 271
279 276 273 269 268 266 271 272 273 270 269 270 273 276 276 276 277 277 277 277 278 278 271 271 274 279 280 281 279 278 278 278 277 277 277 277 278 279 279 279 279 278 278 276 276 276 277 277 276 276 275 275 276 276 276 276 275 275 274 274 274 274 273 273 273 273 272 272 272 272 272 271 270 270 269 269 269 269 268 268 268 267 268 268 269 269
278 277 270 273 270 266 267 270 270 267 263 268 275 277 277 275 276 275 275 277 278 279 276 279 278 279 276 277 278 279 278 277 278 278 278 281 279 277 276 277 277 277 275 275 277 277 277 276 275 275 276 276 276 275 275 274 274 274 273 273 273 273 272 272 272 271 271 270 270 270 270 269 268 267 267 267 267 266 266 266 266 266 267 267 267 266
278 276 273 273 271 268 267 268 267 266 267 272 276 277 278 278 278 277 277 278 278 278 278 278 277 276 278 280 280 280 280 276 274 276 275 274 276 276 276 275 275 274 276 277 276 276 276 276 275 275 275 275 275 274 273 273 273 272 272 272 271 271 270 269 269 268 269 268 268 268 267 267 266 266 265 265 265 264 264 264 264 265 265 265 264 264
277 277 273 274 272 271 267 267 260 264 272 276 276 276 277 277 277 276 274 276 277 277 278 277 279 279 278 278 278 275 274 274 274 275 273 274 275 276 274 275 275 275 276 277 277 277 276 275 276 275 275 275 273 273 272 272 272 271 270 270 270 268 268 268 266 267 267 266 266 266 267 265 264 264 263 263 263 263 263 263 263 263 263 263 263 263
281 277 276 271 275 268 269 266 269 270 273 274 274 275 275 274 273 273 268 273 278 276 276 276 278 277 276 275 275 273 273 274 274 275 275 275 276 275 276 276 276 276 277 277 277 277 277 276 276 275 274 273 272 271 271 271 270 268 268 267 266 266 266 266 265 266 266 265 265 264 264 264 263 262 262 262 261 261 261 262 262 262 262 261 261 261
281 277 275 272 266 271 266 267 265 262 264 270 273 276 276 276 276 277 275 269 272 267 272 276 275 272 270 271 272 272 272 273 270 274 276 276 276 276 276 277 276 277 277 277 275 275 275 275 275 274 272 271 270 270 270 268 267 267 266 265 266 264 265 264 264 265 263 263 262 263 263 262 261 261 261 260 260 260 261 261 261 261 261 260 260 260
279 280 276 275 270 270 267 267 266 263 265 270 269 270 273 273 275 270 269 266 270 269 271 273 270 269 271 272 271 272 271 267 269 275 277 276 276 275 276 276 276 276 276 276 276 275 275 274 274 272 271 270 269 269 268 266 265 265 265 265 265 264 263 263 264 263 262 263 263 263 262 261 261 261 260 260 260 260 260 260 260 260 261 260 260 260
276 274 276 273 271 271 269 267 266 267 266 267 264 269 273 273 274 272 261 261 268 273 272 273 274 272 272 273 273 273 272 266 271 275 277 277 277 277 276 277 275 274 275 275 275 276 275 273 271 270 269 268 268 267 266 264 264 263 264 264 264 263 261 263 262 263 262 262 262 262 260 260 260 260 259 259 259 259 259 260 259 259 259 259 259 259
274 271 275 271 273 273 273 269 268 267 273 271 273 275 274 275 272 262 264 267 271 273 274 275 275 274 274 272 273 270 274 277 278 278 275 277 275 275 274 274 275 276 276 275 275 276 273 272 272 270 268 268 267 265 264 263 262 262 263 263 262 260 262 262 262 262 261 262 260 260 259 259 259 259 259 259 259 259 259 259 259 259 258 258 258 258
268 270 270 272 271 270 271 270 269 272 273 272 275 277 275 272 263 266 273 273 274 274 274 275 275 275 274 274 274 276 277 278 278 275 274 274 276 277 276 274 274 274 274 274 275 273 271 270 268 267 266 266 266 264 263 262 261 261 261 261 260 260 262 262 261 261 259 259 258 259 258 258 258 258 258 258 258 258 258 259 258 258 258 258 258 257
270 269 267 270 272 270 269 267 267 264 273 277 275 275 275 267 270 275 273 274 274 275 274 273 275 276 275 275 276 277 277 277 275 275 275 274 274 275 275 274 274 274 274 272 271 270 270 268 267 266 265 265 264 264 263 259 259 259 260 259 260 261 261 261 260 260 259 258 258 257 257 257 257 257 258 258 258 257 257 258 257 257 258 257 257 257
271 263 259 265 272 264 268 266 266 274 274 276 278 272 272 277 276 275 275 276 276 274 274 275 275 276 275 276 276 276 276 276 274 273 274 274 274 274 274 274 275 274 273 273 272 270 268 268 266 265 264 264 262 262 262 259 258 258 258 259 261 260 260 258 258 257 256 256 256 256 256 256 256 257 257 257 257 257 257 257 257 257 257 257 257 256
273 270 267 265 268 267 266 271 273 275 275 278 280 279 278 280 281 276 277 277 277 276 275 275 276 276 275 275 276 276 276 276 276 276 275 275 275 274 274 274 274 273 273 271 270 268 267 267 265 264 263 263 261 260 259 258 257 257 256 259 259 259 258 257 256 255 255 255 255 255 256 256 256 256 256 256 256 256 257 257 256 256 257 257 256 256
272 274 273 270 268 272 272 272 274 274 273 276 279 279 278 278 278 276 276 276 276 277 277 277 277 277 276 276 275 275 275 276 276 275 274 275 275 275 274 273 272 271 270 268 266 266 265 263 262 261 261 261 260 260 258 258 257 255 257 259 259 258 257 255 254 254 255 254 255 255 255 255 256 256 256 256 257 257 257 256 256 256 256 256 256 256
272 273 271 270 271 269 264 273 273 275 274 275 278 279 278 276 276 276 276 277 278 278 276 277 278 278 278 276 276 276 277 277 276 276 275 275 274 274 274 273 272 271 269 268 267 264 262 261 261 260 259 259 259 258 258 256 257 257 257 256 258 258 255 253 253 255 255 255 255 255 255 255 256 256 257 256 257 257 257 257 256 256 256 256 256 256
271 274 271 273 271 270 269 272 273 276 275 276 278 278 278 279 278 277 277 277 278 278 278 278 277 277 276 274 276 276 277 277 276 276 275 275 275 275 273 272 271 269 268 268 265 263 262 261 261 260 259 259 259 259 257 256 256 256 256 256 257 254 253 253 253 254 254 254 254 255 255 255 257 257 256 256 256 256 256 256 256 255 256 256 257 257
274 274 264 271 271 272 274 275 274 274 275 276 276 276 277 278 278 278 277 277 277 276 277 276 276 278 277 277 277 276 275 276 276 276 276 275 274 273 273 272 271 270 267 265 263 262 263 261 260 259 258 258 259 257 256 255 255 255 256 257 255 253 252 253 254 254 254 254 254 254 256 256 256 255 256 256 256 256 256 256 256 257 258 260 260 260
273 272 273 270 266 266 269 274 274 268 270 276 278 278 278 277 277 277 277 276 276 276 277 276 276 276 277 277 277 276 275 276 276 275 275 275 275 274 273 271 269 267 265 264 262 261 260 259 258 258 257 258 258 256 255 254 254 254 257 254 253 253 252 253 253 252 253 254 254 254 255 255 255 255 256 255 255 256 256 260 265 264 262 262 265 269
274 275 274 270 270 270 275 276 277 278 277 278 279 278 277 277 276 276 276 277 277 277 277 277 276 276 274 275 276 276 276 276 277 276 274 274 274 274 273 271 268 265 264 262 261 259 259 258 258 256 256 257 256 255 255 255 254 254 254 255 255 254 253 252 253 253 254 254 254 255 256 255 255 255 255 256 256 256 256 256 258 264 266 267 267 269
Wind_Speed
1 4 5 7 8 11 10 12 13 9 3 2 0 1 5 4 6 4 4 8 1 2 5 7 3 3 7 8 8 6 4 8 7 7 7 6 6 7 7 7 7 8 7 4 6 7 8 9 9 9 10 10 12 13 13 14 15 14 12 13 13 10 10 9 8 8 7 7 6 7 7 6 6 6 7 8 7 8 7 7 7 7 6 4 5 5
4 3 8 11 11 12 12 6 3 3 1 3 4 3 7 4 8 5 4 3 3 3 3 0 2 6 7 7 6 6 8 7 5 7 7 7 7 6 6 6 7 5 3 6 8 10 9 10 11 10 10 13 15 12 13 14 12 12 14 14 12 11 11 11 8 6 7 4 3 5 4 4 6 8 8 7 7 7 7 9 9 8 7 6 7 6
2 7 12 15 11 2 1 2 4 6 4 2 4 3 2 8 4 8 6 2 1 2 7 0 1 7 10 3 5 6 6 4 5 5 5 6 6 5 6 6 5 6 6 7 8 8 10 11 11 10 11 11 10 10 12 12 14 15 13 12 12 12 11 10 10 9 6 5 6 6 5 5 4 4 4 4 3 5 7 8 8 9 9 9 7 6
3 6 16 12 1 3 4 2 3 1 1 3 2 1 7 4 1 5 4 2 2 1 4 2 5 7 4 6 8 6 4 6 7 10 9 6 8 7 6 5 5 6 6 10 9 10 10 10 10 11 12 11 10 11 13 13 13 11 12 12 12 12 12 11 10 8 5 5 5 6 7 8 9 5 7 9 10 11 10 9 7 7 7 7 8 9
11 10 3 2 4 5 6 5 2 2 4 3 5 5 4 3 4 7 5 2 3 2 1 2 4 6 7 5 3 4 4 8 6 8 8 6 6 5 4 7 6 6 6 7 8 9 10 12 12 11 10 9 11 11 12 11 11 9 11 11 10 10 11 10 12 11 8 9 9 7 9 9 10 11 11 11 11 10 10 10 11 10 8 7 7 6
8 8 2 3 2 3 4 7 6 4 3 3 6 10 8 5 5 3 2 2 6 3 1 1 5 4 4 3 5 4 3 6 3 7 6 6 6 5 6 6 4 5 4 5 7 8 8 8 8 10 12 12 10 11 9 8 9 10 10 11 11 10 11 11 12 11 10 10 10 11 11 10 8 9 10 10 8 9 9 7 7 12 11 12 10 8
8 3 4 5 5 4 5 5 4 6 5 0 6 7 7 4 3 2 2 2 1 2 1 2 0 7 5 2 5 4 4 5 3 4 4 5 5 4 5 4 4 4 5 5 6 7 9 9 9 11 11 10 11 9 7 8 9 11 10 10 11 11 10 11 11 12 9 10 9 10 9 8 8 7 6 4 5 7 7 7 11 9 11 11 12 12
2 5 4 2 3 4 3 6 4 9 6 4 2 3 5 5 4 4 3 2 3 1 5 1 3 6 3 7 3 7 7 4 4 3 3 4 4 4 4 4 4 4 4 4 6 7 7 8 8 10 9 9 8 6 7 9 9 12 11 12 12 11 12 11 10 12 11 9 9 10 10 9 9 8 6 7 7 7 7 10 10 9 9 10 10 11
3 2 2 4 3 4 7 6 3 7 6 3 2 5 3 3 2 3 1 1 0 1 7 3 0 1 4 5 0 8 6 3 3 4 3 4 3 3 3 3 3 4 4 4 6 6 7 7 8 7 8 6 7 8 9 8 8 8 9 11 12 14 12 11 12 11 11 10 10 9 9 10 8 7 7 6 8 9 8 11 10 10 9 10 10 10
1 1 3 7 5 7 4 1 3 9 5 2 4 4 5 5 4 2 3 2 1 1 7 5 4 3 7 4 1 3 2 6 6 5 5 3 4 3 3 3 3 3 4 4 5 5 6 6 6 5 5 8 8 7 6 6 7 9 10 12 14 14 11 10 12 11 12 11 10 12 11 12 10 8 8 9 10 9 8 10 10 8 9 9 9 10
1 4 5 4 5 4 4 1 1 1 1 4 4 2 4 7 3 2 5 2 2 4 7 9 8 7 5 4 7 8 5 1 8 3 4 4 3 3 2 3 3 3 3 3 4 4 4 4 4 4 7 6 6 5 6 9 9 10 11 11 15 12 10 11 11 11 12 11 11 11 10 11 11 10 10 11 11 10 11 10 10 9 8 8 9 9
3 1 0 2 3 3 4 3 3 1 1 3 1 2 3 2 7 3 3 4 2 7 6 4 7 6 6 4 2 3 5 4 15 14 12 10 7 5 4 3 2 2 2 2 4 4 4 5 5 4 7 6 5 7 9 8 9 10 9 10 13 13 11 10 10 11 11 10 11 10 10 11 10 10 10 11 10 9 9 9 9 7 8 9 8 10
3 6 2 5 3 7 2 4 2 5 3 5 5 6 2 4 5 2 2 1 5 6 2 2 5 2 9 5 2 6 6 6 3 11 15 13 10 7 4 4 2 2 2 3 3 4 3 4 4 5 4 5 9 9 8 10 9 9 10 10 13 11 9 9 9 10 10 11 11 10 10 9 9 11 11 10 10 8 9 8 9 9 9 8 10 9
5 2 2 3 3 3 7 6 2 1 1 5 5 5 5 1 1 4 5 1 5 6 4 4 1 3 3 2 3 4 5 7 2 8 8 9 10 9 7 5 4 2 2 2 3 2 2 3 3 4 5 7 6 6 7 7 8 7 8 8 11 9 8 7 8 9 10 10 9 8 9 8 8 9 9 8 8 8 7 7 8 8 8 7 7 8
1 3 6 5 3 2 6 8 9 5 7 8 3 9 8 8 4 4 3 5 6 6 2 4 1 5 2 2 3 2 4 4 4 8 6 5 5 4 3 3 2 2 2 2 3 3 3 4 4 5 5 5 5 5 7 6 7 6 8 8 8 8 7 7 7 7 8 8 7 7 7 8 7 7 7 7 6 6 7 7 7 7 7 7 7 7
6 5 4 2 1 5 8 1 5 5 4 1 3 5 5 7 5 5 6 3 2 3 4 2 4 2 2 1 1 2 3 5 4 5 6 6 4 4 4 4 4 2 2 2 3 4 4 4 4 4 4 4 4 5 5 5 5 6 6 6 5 6 5 5 5 5 4 4 4 5 7 6 6 5 6 6 6 6 5 5 5 6 6 6 6 7
2 3 1 3 3 3 1 2 1 3 4 2 4 4 5 2 4 1 3 0 1 2 9 2 3 1 0 2 1 1 4 2 2 3 5 5 5 4 5 4 3 3 3 3 4 4 4 3 3 3 4 3 4 5 6 6 6 7 6 6 6 4 3 4 4 4 4 4 4 5 5 5 5 6 5 5 4 4 3 3 3 3 4 4 4 5
6 5 1 3 2 0 0 1 2 3 3 7 2 7 2 2 3 3 4 3 1 5 7 1 6 3 1 8 2 0 2 3 2 4 4 4 4 6 5 4 4 4 3 3 3 2 3 2 3 3 3 4 4 4 6 6 4 4 3 4 4 4 6 5 5 5 5 5 5 5 5 4 4 4 4 4 3 2 3 4 3 3 5 4 4 3
4 3 3 1 2 3 2 1 2 1 1 3 2 2 2 3 1 2 4 3 2 4 4 5 3 4 8 6 3 6 8 10 7 5 5 6 7 6 4 4 4 3 3 3 4 3 3 3 3 3 3 2 2 3 3 3 3 4 4 4 4 4 4 4 5 5 5 6 5 5 5 6 7 7 6 6 5 4 5 5 4 4 4 4 4 5
1 3 4 1 2 0 1 4 6 4 1 1 1 1 0 2 3 3 5 4 3 4 1 5 1 7 5 4 13 12 14 11 10 8 10 10 8 8 7 6 6 6 5 4 4 3 3 3 2 2 2 2 2 2 1 2 2 3 1 2 2 3 4 4 5 5 5 4 5 5 5 5 4 4 4 5 6 7 7 6 7 8 8 7 7 6
2 2 4 1 2 1 2 4 8 9 6 1 2 2 0 0 2 3 0 4 4 3 4 4 7 6 5 3 7 10 12 14 15 14 10 9 8 7 7 8 7 6 5 4 4 4 4 3 2 2 2 1 1 0 0 2 4 3 1 2 2 3 2 4 3 4 4 4 5 5 5 4 4 5 4 5 5 5 5 6 6 6 6 7 9 8
2 1 6 1 1 5 6 3 5 5 6 7 8 8 8 5 2 4 9 2 1 4 4 5 12 4 2 1 1 4 5 11 11 11 10 8 7 10 9 7 6 5 5 5 5 5 4 4 4 3 2 0 1 2 2 2 3 3 4 4 3 2 1 2 2 2 2 2 2 2 2 3 1 1 2 2 4 4 5 6 6 6 5 6 7 7
2 2 3 4 6 7 3 1 2 2 3 2 6 4 5 3 5 3 8 5 1 3 3 2 1 6 1 3 3 2 6 8 8 6 8 9 11 10 7 5 5 6 6 7 6 5 5 5 4 4 3 3 3 3 3 3 4 4 4 4 3 3 2 2 1 0 0 1 1 1 1 2 2 3 4 4 5 5 6 6 6 5 6 6 7 6
5 1 0 4 2 3 3 3 2 2 2 1 2 2 3 4 6 7 5 3 3 2 2 1 4 2 2 2 2 2 4 5 6 9 12 9 6 6 8 8 8 7 6 5 5 5 4 4 2 2 3 3 3 4 4 4 3 3 3 3 4 3 3 3 3 1 1 0 0 0 1 2 3 3 3 4 4 5 5 6 6 5 5 6 6 7
2 3 5 1 2 3 2 4 3 2 2 2 2 1 2 3 4 2 5 1 1 5 6 4 12 6 0 2 3 4 4 5 7 5 3 6 5 7 8 8 7 6 5 6 5 5 4 2 3 4 4 5 5 4 4 4 4 3 4 2 4 4 4 4 3 2 2 2 1 1 1 2 2 2 3 4 4 4 4 4 5 5 5 6 7 7
5 3 7 7 10 10 9 7 5 6 8 1 0 0 1 5 6 4 2 3 5 3 6 5 10 1 1 3 1 1 3 4 3 4 3 4 5 7 7 6 7 6 7 6 5 3 5 5 5 5 5 5 5 5 4 4 4 4 4 4 4 4 3 4 3 4 3 3 2 2 2 3 2 4 4 5 5 5 5 5 5 6 5 5 7 7
3 1 3 7 10 12 8 2 3 2 1 3 2 3 4 2 2 3 4 2 7 3 4 7 6 1 3 3 4 4 4 5 6 4 7 7 7 6 5 6 7 8 7 7 6 5 4 5 7 7 6 6 5 5 5 5 5 5 5 5 4 4 4 4 4 4 4 2 2 1 2 4 4 4 5 5 6 6 5 6 6 6 7 6 5 7
2 1 5 5 6 4 3 4 4 3 5 3 2 5 6 5 4 6 7 6 4 3 12 10 5 4 11 10 7 6 6 6 5 5 6 6 6 8 8 6 6 5 5 4 5 6 8 8 6 6 6 5 6 6 5 4 5 5 6 7 4 3 2 2 2 2 1 0 2 4 5 5 5 6 7 7 7 8 8 8 8 9 8 7 9 9
5 6 1 3 4 2 2 4 2 1 2 3 6 7 10 6 7 6 5 10 7 9 13 8 4 6 7 9 3 9 10 9 8 9 9 8 4 3 4 7 9 8 6 7 8 8 8 7 7 6 6 6 5 5 6 5 3 2 3 3 2 1 1 1 0 1 2 4 4 4 4 5 4 4 5 6 7 8 9 9 9 9 9 9 9 9
4 3 4 2 3 2 2 3 3 4 2 3 8 11 10 7 5 6 11 8 10 9 10 10 9 13 10 8 5 8 7 7 7 5 0 2 5 7 7 8 9 8 8 9 8 8 7 7 6 6 5 5 4 2 2 2 1 1 2 3 3 4 3 3 4 4 4 4 4 4 4 5 4 5 5 7 8 8 8 8 9 10 10 11 11 11
3 4 6 0 1 4 3 1 2 2 3 6 8 8 6 1 3 10 7 5 5 6 12 12 11 14 13 7 5 5 1 1 1 4 7 6 5 7 8 7 8 8 8 8 7 7 6 5 4 4 4 3 1 2 1 1 2 3 4 3 4 4 3 3 4 4 4 5 4 5 6 6 7 7 9 8 8 7 8 10 9 9 10 11 11 12
2 4 3 2 3 3 1 2 3 2 3 4 9 15 5 4 9 10 8 7 6 11 8 2 5 12 14 7 2 2 3 5 7 7 5 5 5 6 8 8 8 8 8 8 7 5 4 5 5 5 5 4 3 4 4 4 4 4 3 3 3 3 3 4 4 5 4 4 5 5 7 7 7 8 8 8 8 9 9 9 10 10 11 11 12 12
3 5 4 2 2 4 2 1 1 2 5 10 18 16 10 13 12 8 6 5 11 7 5 8 13 12 9 6 6 6 6 8 5 5 5 4 6 8 9 9 8 7 7 6 5 5 5 6 6 6 5 5 6 5 4 5 4 4 3 3 1 2 4 4 4 4 4 5 6 6 5 6 6 6 6 7 7 8 9 10 11 11 11 12 11 11
4 6 4 2 5 3 1 2 1 2 6 15 1 5 8 9 11 13 12 13 8 8 8 9 9 6 5 5 8 10 8 8 10 8 5 9 9 6 4 6 7 7 6 6 8 8 7 5 4 5 7 7 5 5 4 3 5 4 3 2 2 4 4 4 5 4 4 3 3 4 5 6 5 6 6 6 7 8 9 9 10 10 9 10 11 11
6 4 5 2 5 3 2 3 1 9 17 2 1 1 4 7 7 11 10 8 8 9 8 7 6 5 8 9 10 11 8 1 0 6 4 4 5 7 8 7 7 6 7 8 8 7 8 8 6 6 5 5 6 5 5 4 3 3 3 3 4 3 3 2 3 3 3 3 4 5 4 6 5 6 7 7 8 8 9 9 10 10 9 9 10 11
6 6 4 1 4 3 3 5 3 12 5 5 5 1 1 1 0 0 5 8 10 10 10 10 12 9 8 9 5 0 2 2 1 1 4 5 6 6 5 6 7 7 8 9 10 9 9 9 11 10 8 5 6 4 4 4 3 3 2 2 3 2 2 2 2 3 2 3 4 4 5 4 5 6 6 8 8 8 10 9 9 10 10 10 10 9
9 3 4 3 2 7 4 8 13 5 11 11 9 3 5 6 5 6 6 10 11 5 8 7 9 9 7 4 1 3 2 2 1 3 4 7 6 5 7 8 7 9 10 9 9 10 9 9 8 8 7 6 5 5 4 3 3 3 2 2 2 2 1 1 1 1 2 2 3 3 4 5 5 6 6 7 8 9 9 10 11 9 8 10 10 10
8 11 4 7 5 6 5 5 4 2 8 14 6 1 1 2 4 6 5 8 5 2 5 9 8 6 2 0 3 3 2 2 4 6 7 8 7 7 6 6 5 6 7 7 4 4 5 5 6 6 8 8 6 4 4 3 3 3 2 1 1 1 1 1 0 1 2 2 2 3 4 4 4 6 7 7 8 9 9 9 9 9 8 9 11 10
2 2 4 9 3 4 3 8 9 7 10 6 3 2 2 1 7 4 2 8 6 5 7 6 5 4 6 6 5 4 3 4 7 8 8 5 5 6 7 7 7 7 7 9 11 9 8 7 8 8 7 7 7 4 3 3 3 3 1 0 0 0 0 0 0 1 1 3 3 3 4 4 4 5 7 8 9 8 10 9 9 9 8 9 8 10
4 3 5 5 6 8 7 7 11 5 6 3 3 3 3 3 3 5 2 8 5 7 6 6 5 6 7 6 7 7 8 7 8 9 6 9 8 8 8 7 5 5 6 4 3 7 8 8 9 6 7 6 6 4 4 3 3 1 2 1 1 0 1 1 0 1 2 3 4 4 3 4 5 6 7 9 9 8 9 8 9 9 9 9 8 9
5 1 7 15 13 12 13 8 3 6 5 3 4 4 2 2 3 4 11 8 2 6 8 7 7 8 7 7 7 8 10 10 10 8 5 8 5 4 4 3 6 8 10 8 8 7 8 7 8 9 7 6 6 5 3 3 3 2 2 2 2 2 2 1 0 2 3 3 4 4 4 4 5 8 8 7 9 9 8 8 9 9 9 9 8 8
2 2 4 2 9 12 9 9 10 6 6 4 3 8 5 4 3 12 6 4 10 8 7 10 9 8 8 11 10 10 10 11 8 1 4 5 10 9 7 5 3 2 1 3 7 8 7 6 5 6 5 4 6 5 4 3 3 2 3 2 2 3 2 1 2 2 3 4 4 4 5 6 6 6 7 7 8 9 10 8 8 8 9 8 8 10
10 8 8 10 4 1 2 6 3 9 6 13 8 2 3 5 8 4 2 3 4 7 9 8 9 7 9 9 11 12 10 7 6 7 7 7 7 8 7 6 7 9 9 7 5 5 9 8 8 7 7 5 5 4 3 3 2 2 1 2 3 2 1 2 2 3 3 4 5 5 6 6 7 8 6 7 8 9 11 9 8 8 8 9 10 10
4 5 3 5 5 6 8 9 10 10 2 8 13 10 5 11 7 5 4 5 4 5 5 6 8 9 9 11 11 11 10 9 6 5 5 5 7 6 5 7 7 7 7 7 9 10 7 8 6 6 5 5 4 3 3 3 2 2 2 4 2 1 1 1 2 2 4 4 5 6 6 6 7 7 7 8 8 8 10 10 8 8 8 8 8 9
8 10 7 6 4 9 9 8 3 3 6 9 12 9 8 13 11 6 6 6 6 6 5 5 8 8 9 11 11 11 11 10 11 10 9 10 9 9 9 11 11 12 12 13 11 9 7 10 9 7 5 5 4 3 3 3 3 2 3 2 2 1 2 2 2 3 4 5 5 6 6 6 6 7 7 7 7 8 9 9 7 9 8 7 8 9
4 3 1 3 4 2 3 6 2 0 2 7 8 8 9 9 7 5 7 6 5 7 7 8 8 8 9 9 9 7 9 10 10 9 8 8 8 9 8 6 6 5 5 5 5 8 7 6 6 6 6 4 4 4 4 3 4 3 3 1 1 2 2 2 2 4 5 5 5 6 6 7 7 6 7 7 6 7 8 8 8 8 9 8 9 9
5 2 1 3 3 4 5 2 5 6 3 5 11 11 8 5 5 6 6 8 8 7 6 6 9 9 10 10 12 12 13 12 11 10 10 9 9 9 9 10 10 12 13 13 11 10 8 7 7 7 6 6 5 5 4 3 3 4 3 3 3 2 2 2 3 4 5 6 6 5 5 6 6 6 6 5 6 7 7 7 6 7 9 9 9 9
5 3 3 7 5 5 7 4 7 6 4 6 10 11 12 12 9 6 8 7 8 8 8 10 8 8 6 6 10 11 13 11 10 11 10 10 10 10 10 10 10 8 7 7 9 9 7 8 9 7 7 7 6 5 4 3 4 3 3 3 3 3 2 3 4 5 5 6 6 5 5 6 7 7 7 7 7 8 8 7 5 6 9 10 10 11
4 2 4 4 6 3 3 7 6 1 5 9 10 6 6 7 8 8 7 8 9 9 10 7 6 10 8 11 10 10 10 12 11 12 12 11 10 8 9 11 11 12 11 10 10 10 11 8 7 7 7 6 5 5 4 4 3 3 3 3 3 2 2 4 4 4 5 6 5 5 4 5 6 6 7 8 7 7 8 9 8 8 10 11 9 10
3 10 3 4 4 2 8 11 4 2 6 11 14 14 12 11 8 9 8 7 8 10 10 10 10 9 10 10 9 9 11 12 12 10 11 11 11 12 10 9 8 8 8 7 7 7 6 7 7 7 6 4 4 4 4 3 3 3 3 3 3 3 3 4 4 4 5 5 5 5 5 5 5 5 6 7 8 9 10 11 17 12 10 11 18 24
10 13 6 8 8 10 11 9 10 12 11 12 10 7 6 6 7 10 11 12 12 12 11 11 11 10 7 11 10 10 12 13 14 11 10 9 10 11 11 11 10 8 9 8 9 6 7 6 5 5 4 4 4 4 3 3 3 3 4 4 4 4 4 4 3 4 5 4 4 5 5 6 6 6 6 6 7 7 8 12 15 18 18 18 20 21
Wind_Direction
107 120 174 206 213 214 214 199 205 223 193 224 99 148 251 240 274 290 285 261 40 334 249 259 263 239 270 276 294 325 19 65 88 85 80 72 69 62 59 58 54 49 41 6 18 21 21 24 24 26 29 28 34 29 27 32 27 24 19 22 24 9 21 35 39 39 40 35 26 37 41 44 28 34 38 38 21 29 27 29 31 32 38 46 48 36
63 136 234 221 215 210 221 213 224 287 247 224 257 276 278 234 258 245 242 309 292 163 287 266 311 290 274 284 344 344 56 52 83 94 86 86 74 65 60 59 52 47 43 26 29 23 25 26 27 31 31 28 35 22 31 35 32 28 25 27 17 13 17 20 17 33 51 39 81 99 70 84 47 37 39 36 27 26 30 29 25 24 28 38 39 31
143 194 232 227 226 240 355 136 170 186 220 155 198 224 269 266 247 274 271 281 272 135 255 251 324 279 277 339 23 42 61 64 47 74 85 88 78 65 52 52 45 45 40 34 35 30 29 25 27 35 34 31 28 29 36 34 37 32 30 24 20 16 15 13 12 22 25 23 36 59 47 51 77 73 70 75 52 36 40 35 28 23 18 19 27 31
209 279 248 244 193 231 282 183 151 120 114 190 208 147 232 231 158 296 273 328 328 116 280 326 306 279 280 89 57 21 63 73 65 71 67 61 76 64 50 40 45 44 38 41 31 30 27 29 29 31 35 28 24 26 30 28 34 36 33 29 25 19 14 11 7 15 12 42 52 55 59 53 68 50 22 27 24 16 20 22 22 31 21 23 21 15
202 222 238 227 170 182 236 268 159 161 255 257 204 216 232 207 226 182 252 299 301 341 58 12 314 310 267 222 83 92 74 80 72 76 69 61 65 75 74 60 40 46 37 43 39 36 34 36 32 29 28 33 37 31 31 29 31 37 36 35 38 33 21 13 8 9 16 31 33 30 40 42 38 31 30 28 16 12 11 11 5 359 8 15 27 21
268 258 88 117 124 159 200 268 256 147 241 304 228 205 216 214 227 262 344 12 18 336 322 82 345 301 289 308 147 156 68 72 52 69 61 58 50 52 60 56 42 44 35 50 45 39 38 43 36 35 32 30 30 32 25 30 37 40 37 36 40 43 36 22 13 10 25 37 43 42 42 38 37 39 28 26 12 7 16 3 358 10 12 7 1 10
217 245 150 204 162 162 175 211 244 154 202 274 272 194 211 201 200 157 133 76 240 186 296 53 215 275 321 308 179 168 110 87 51 60 67 55 55 49 57 56 46 39 38 36 46 38 43 31 38 37 38 28 28 19 14 28 34 40 43 39 40 42 42 32 23 16 24 39 44 56 63 61 54 54 34 28 26 25 10 22 21 11 15 15 15 6
172 250 215 211 181 168 192 260 242 162 135 230 256 113 112 119 136 190 126 163 228 266 301 343 153 250 300 278 193 161 124 113 96 76 70 71 69 59 61 52 46 38 38 50 47 46 44 41 35 38 28 28 24 6 21 34 32 36 36 41 41 41 40 37 31 29 24 38 37 45 50 50 47 47 33 20 17 25 24 29 20 16 13 13 20 17
158 216 185 185 166 173 213 212 196 156 144 220 208 129 135 148 171 111 94 138 210 24 285 308 351 311 254 257 35 155 141 177 160 145 122 102 81 72 61 52 49 37 38 45 57 49 45 44 38 33 36 19 23 24 29 31 34 38 39 43 44 42 37 31 34 38 31 36 41 47 46 51 41 40 33 24 32 31 20 32 19 20 10 13 15 19
348 205 218 155 143 210 225 262 176 162 179 255 163 90 67 63 65 105 108 97 329 51 262 230 181 226 274 272 158 252 268 205 181 161 145 134 120 114 93 67 60 45 39 44 58 57 52 47 44 36 44 37 28 20 23 36 42 42 43 42 45 39 35 29 33 37 38 35 36 44 41 49 41 35 32 38 33 29 22 31 22 17 18 10 12 11
266 292 161 120 192 207 143 111 141 323 145 117 84 62 5 42 40 28 67 89 44 264 251 212 198 178 287 255 191 162 214 185 135 142 145 141 132 125 122 108 89 73 50 55 59 53 53 38 46 38 52 42 31 22 30 37 39 42 43 42 47 36 34 30 32 35 37 37 37 41 39 42 41 34 38 38 31 24 27 28 20 19 12 14 15 11
346 351 216 257 93 96 107 83 20 53 40 111 74 111 33 339 6 30 343 38 148 270 262 245 192 171 193 293 336 293 319 225 166 169 166 159 157 153 143 131 109 88 90 61 59 48 35 38 33 36 50 43 34 38 38 39 40 44 43 45 51 39 31 29 29 37 38 39 38 39 38 42 37 38 39 40 35 24 30 24 22 14 19 16 12 14
283 236 245 325 210 134 99 85 338 14 12 79 80 43 101 263 33 310 20 288 211 224 268 99 124 61 249 226 261 308 320 322 208 165 162 156 153 155 156 153 149 142 105 85 70 60 46 51 41 43 44 47 40 39 35 37 40 40 43 43 55 44 31 32 32 42 41 42 39 36 37 37 35 38 38 36 34 23 26 18 21 20 21 12 16 12
275 279 332 264 348 215 132 147 196 103 209 114 149 135 93 212 218 255 267 226 303 289 264 131 171 283 252 306 29 303 315 313 131 122 131 142 146 155 162 163 153 138 109 96 85 85 84 69 62 58 55 53 50 47 47 46 48 45 48 43 55 46 32 30 38 39 46 44 42 40 44 43 41 42 41 37 37 23 25 20 21 21 16 13 14 2
204 335 270 150 233 184 170 189 181 168 161 209 122 150 183 147 156 240 195 224 230 224 278 268 70 230 139 226 337 319 341 13 62 108 120 125 137 135 129 126 126 107 85 96 97 94 78 68 68 69 65 64 62 59 54 51 48 51 50 47 51 47 30 35 36 36 43 42 40 43 46 47 45 46 42 41 37 31 27 20 24 18 13 15 1 3
203 215 259 227 267 155 180 202 119 98 52 169 162 79 88 234 133 218 200 162 239 311 318 208 196 203 152 312 3 35 38 49 54 89 110 115 123 128 136 155 154 140 124 109 100 83 70 74 72 71 68 68 68 71 70 64 60 59 51 50 51 53 38 36 40 41 46 42 46 48 50 49 52 49 48 40 33 28 30 21 25 13 12 6 359 356
65 276 287 338 45 149 178 153 204 138 204 225 108 203 209 166 122 29 339 265 80 34 257 157 306 291 286 243 29 27 74 53 74 97 123 144 163 161 171 174 177 160 131 118 106 105 104 90 78 89 93 84 72 64 62 61 56 58 49 43 41 35 42 43 43 50 44 45 55 45 52 48 50 51 53 49 31 27 18 29 16 16 348 346 353 344
150 236 295 111 199 286 197 83 98 30 147 103 170 237 170 127 116 125 212 318 157 219 267 61 223 290 103 287 130 226 126 189 186 175 173 185 182 179 194 187 184 175 162 144 135 130 132 129 102 83 73 72 75 69 57 55 51 62 72 66 52 38 32 20 30 32 38 31 39 38 41 46 61 58 48 49 29 14 30 7 7 353 359 347 321 329
116 287 290 242 141 295 9 92 22 353 25 148 190 211 124 258 248 315 90 259 260 265 269 289 266 247 187 232 131 230 194 201 192 199 189 203 206 199 193 211 207 190 158 155 158 145 122 104 95 77 73 42 46 52 73 58 63 55 45 43 55 38 31 25 24 24 25 29 25 24 24 29 24 21 18 9 4 354 6 3 2 2 342 330 331 335
58 162 291 331 141 272 29 92 206 223 2 38 66 54 258 110 185 141 200 193 129 256 256 293 299 255 214 210 185 203 198 183 179 188 207 202 198 192 196 198 189 189 187 178 166 163 158 152 150 144 140 125 123 126 145 138 98 84 73 60 43 35 30 27 24 24 27 12 27 15 24 21 27 26 17 7 6 356 352 344 345 345 349 346 339 337
189 113 223 275 305 86 175 194 213 165 164 138 101 253 251 202 227 110 321 141 186 189 215 262 281 274 269 201 178 209 185 180 179 189 194 201 203 206 204 194 193 189 185 182 179 177 182 188 194 204 194 189 233 304 246 202 162 184 177 141 116 99 42 35 15 31 16 17 14 27 15 7 13 9 7 3 359 349 333 330 331 335 332 337 337 336
112 170 201 338 98 203 239 248 191 178 175 165 166 202 176 132 201 237 260 74 138 187 232 232 259 282 262 23 222 233 189 173 191 178 183 196 199 208 207 206 193 188 196 188 190 183 186 194 174 179 203 226 279 257 224 219 176 165 181 175 168 125 117 97 22 35 6 20 34 33 353 333 311 330 354 1 342 340 330 329 325 317 333 329 316 328
152 126 95 207 196 199 210 40 266 199 141 177 150 229 166 145 113 137 237 235 70 242 107 202 305 260 252 272 295 202 165 174 172 172 183 192 206 208 207 203 201 197 189 189 182 183 183 181 185 194 205 224 214 224 212 194 169 169 172 178 179 141 194 189 210 217 149 59 31 329 315 326 330 342 338 352 336 333 326 321 318 318 322 312 310 309
70 99 246 278 318 315 329 301 35 28 102 37 328 65 115 183 188 198 222 196 169 278 273 316 235 238 298 7 2 84 133 163 169 181 188 198 195 198 198 198 195 193 200 187 179 175 186 185 190 191 214 203 192 189 187 180 182 196 186 190 171 181 207 211 223 208 151 258 304 303 338 328 314 338 322 337 317 313 308 311 309 311 310 300 298 297
143 248 153 237 334 337 353 350 359 340 55 161 188 228 158 101 80 110 87 66 107 218 214 195 254 235 279 35 46 98 114 157 191 222 197 186 206 205 202 202 195 189 181 187 186 193 186 180 187 197 188 179 190 192 182 189 195 198 213 208 198 220 213 217 207 188 215 195 229 284 268 285 283 281 299 304 301 290 290 289 290 292 293 299 301 300
178 184 138 195 222 233 241 201 228 237 225 230 227 319 238 133 140 110 172 183 203 228 162 208 254 290 5 352 38 170 189 206 231 218 229 215 212 210 209 205 200 189 194 187 195 175 186 190 188 183 186 189 191 188 196 206 204 212 222 224 217 212 225 228 197 204 194 202 202 249 250 268 293 319 328 322 318 314 307 304 300 298 291 283 287 291
170 150 187 206 208 236 238 191 245 121 105 184 252 175 214 142 168 114 108 137 194 220 209 232 199 236 274 213 241 236 239 219 231 226 221 227 231 228 223 207 195 194 189 189 186 190 177 180 194 194 193 193 198 199 202 199 211 215 215 235 236 226 216 218 194 208 203 207 216 275 340 347 341 331 332 334 328 325 324 321 318 313 311 307 294 296
78 210 235 216 244 251 133 180 194 165 173 219 170 261 228 192 164 149 172 207 173 156 250 237 212 189 248 251 201 218 237 244 246 240 242 243 234 213 206 200 197 196 196 176 178 182 189 196 200 203 210 213 218 213 218 221 214 206 205 219 235 243 245 302 217 236 227 72 26 21 354 348 340 343 340 337 335 333 332 329 326 323 319 321 317 313
148 215 278 126 258 174 157 139 171 123 204 213 234 239 254 223 139 169 210 217 168 206 248 249 184 193 235 241 173 194 208 212 223 229 222 222 226 185 166 184 194 193 182 180 194 195 195 202 205 213 218 223 225 224 227 233 264 326 335 356 26 88 39 274 164 63 45 30 19 0 344 339 339 339 339 332 333 335 332 329 326 325 324 322 317 313
90 271 181 137 212 278 170 155 205 175 226 238 231 239 236 239 209 187 225 224 196 224 242 256 264 258 249 251 227 230 211 211 231 251 35 165 193 192 191 193 185 180 183 193 201 204 208 209 212 216 219 225 229 272 337 338 336 2 40 34 35 50 18 54 50 43 21 20 2 349 344 339 336 338 339 339 339 334 329 328 327 325 323 319 316 314
118 258 107 207 155 277 305 237 206 153 179 245 259 251 242 165 214 225 234 242 223 256 250 252 265 274 268 243 211 250 199 149 157 203 220 218 186 186 185 181 178 186 198 205 209 215 217 223 225 233 238 240 203 201 185 140 92 97 82 66 54 42 11 41 32 29 26 5 2 351 348 347 346 348 348 344 336 332 332 328 326 322 318 315 313 312
80 239 62 80 119 295 317 164 235 48 7 268 272 263 230 207 247 241 222 214 200 225 234 244 253 252 260 264 209 232 199 193 205 213 212 213 198 173 174 181 186 199 207 211 220 226 228 219 214 213 210 192 171 144 134 122 108 84 74 58 42 18 20 36 35 27 17 8 354 356 355 351 347 349 343 342 335 333 331 328 324 321 317 314 314 313
167 140 133 114 125 256 283 154 216 38 7 311 260 251 230 229 236 256 260 227 219 210 196 207 233 235 243 252 263 255 224 233 227 202 209 215 201 185 182 186 195 207 210 203 190 188 182 178 182 173 157 152 153 144 149 140 112 95 96 64 19 36 39 39 34 17 14 5 1 353 354 351 350 341 337 334 334 329 329 324 319 318 317 314 315 317
113 133 160 153 153 241 271 262 49 57 263 243 31 146 182 212 220 227 241 241 228 172 209 204 231 232 225 225 222 245 242 220 213 217 193 176 192 206 208 200 205 207 202 184 179 177 186 175 164 162 160 160 153 133 127 116 114 121 115 105 58 56 29 29 16 20 359 2 351 359 357 352 346 335 330 331 328 325 319 318 312 312 313 313 317 316
149 132 159 144 124 223 168 93 240 239 246 289 336 8 180 204 211 212 237 241 233 221 227 248 257 223 218 216 218 231 239 303 94 161 206 220 173 179 190 206 211 202 191 180 186 183 178 173 165 158 159 158 145 139 124 98 109 110 72 54 55 51 44 28 16 7 359 3 2 8 354 350 339 330 326 324 322 318 313 311 311 312 315 314 312 313
172 147 156 119 126 51 107 170 194 239 268 307 273 217 58 103 209 66 304 266 245 220 204 216 236 233 233 236 247 56 128 174 25 304 220 227 192 184 183 208 209 192 192 193 182 190 178 178 173 172 167 146 127 123 113 117 118 111 116 96 89 64 38 32 14 353 9 17 10 358 346 340 328 322 320 317 316 314 311 311 309 310 311 307 303 298
159 99 135 217 182 194 200 195 234 358 316 292 282 196 171 215 172 166 228 259 246 200 179 204 230 242 233 259 222 151 119 80 91 277 264 235 233 208 199 216 193 199 197 199 187 187 190 180 169 157 135 133 130 126 129 134 133 124 109 77 59 61 28 39 0 347 35 17 350 335 331 323 317 312 311 310 309 307 306 308 307 303 304 299 297 297
167 170 205 141 267 146 158 245 309 293 252 257 245 34 313 196 157 182 182 276 289 247 194 173 215 213 185 309 145 162 82 85 284 260 243 232 222 217 233 230 219 205 201 191 189 169 162 155 131 133 136 133 125 124 125 123 107 95 72 62 29 52 16 37 282 69 28 334 311 314 309 310 307 304 304 302 299 299 298 297 293 292 296 293 298 297
341 136 172 183 206 116 154 207 222 224 240 235 250 243 248 186 136 100 79 268 267 198 206 165 168 205 178 166 193 131 128 217 246 243 248 225 216 199 194 215 205 203 195 181 170 167 167 156 145 140 130 130 131 134 120 112 100 93 102 152 229 80 0 250 121 48 321 296 299 295 297 296 297 296 297 295 292 293 293 293 291 291 291 286 287 288
159 160 137 186 218 220 207 220 234 224 250 273 244 234 211 114 89 66 298 266 255 190 171 167 182 199 212 199 158 162 172 216 236 249 212 207 199 196 184 189 193 194 208 195 186 163 150 137 126 133 143 148 148 138 130 114 109 131 178 202 166 184 218 186 133 282 290 286 288 287 286 290 290 287 287 289 289 287 284 286 290 289 290 288 287 291
173 251 202 205 217 226 223 241 312 287 269 197 167 229 161 166 75 120 232 236 228 173 196 177 197 203 184 171 167 188 221 208 221 229 175 197 204 240 244 225 192 186 181 178 172 145 146 157 157 161 163 151 141 138 137 132 138 182 186 178 170 211 193 161 250 277 277 285 285 283 285 284 279 283 280 278 285 286 285 284 285 291 289 291 293 289
349 83 323 300 222 224 223 228 232 266 235 177 268 166 177 105 198 219 235 180 158 203 199 192 202 213 179 183 192 208 221 225 239 99 170 184 195 208 201 186 137 99 67 132 147 147 143 144 136 130 131 141 144 149 150 142 159 186 177 170 206 210 158 189 244 266 276 280 282 283 284 278 275 272 277 282 282 286 285 281 280 283 287 289 294 295
184 151 205 206 211 66 114 234 249 255 255 150 140 53 251 164 233 201 213 264 192 196 180 210 206 217 179 210 209 213 227 234 219 212 207 199 201 206 200 174 174 175 166 149 157 176 153 154 164 167 162 158 156 154 152 131 162 181 184 199 227 177 190 222 247 267 272 281 282 280 278 275 275 279 279 281 280 283 287 288 288 285 287 294 297 292
201 115 232 248 179 161 188 201 207 220 159 156 144 189 206 215 209 190 156 243 221 182 191 195 219 212 198 200 212 227 232 236 246 238 237 227 217 223 202 196 194 183 178 185 174 168 162 159 163 160 163 161 158 151 148 148 171 185 198 239 199 195 210 239 259 267 279 279 279 280 277 275 276 274 277 278 283 280 283 290 292 292 294 297 294 294
204 196 175 188 210 154 196 216 253 226 168 195 182 204 203 214 222 188 181 196 199 232 198 194 223 219 202 208 216 212 223 225 225 215 203 220 213 206 198 199 189 184 183 181 180 170 166 167 169 162 168 171 161 166 175 173 155 187 217 221 162 238 240 254 260 277 278 278 277 275 273 274 275 278 276 276 277 283 288 291 298 301 300 298 294 290
274 193 166 83 258 243 264 195 212 232 158 204 224 209 208 228 233 171 188 221 235 222 179 192 220 221 213 208 209 233 224 227 224 229 225 227 215 216 208 195 199 187 167 138 141 167 163 146 149 159 173 189 175 184 179 188 163 188 223 204 220 242 243 258 275 279 275 275 274 273 278 285 282 275 272 274 271 272 280 285 296 297 298 297 288 288
256 157 123 185 255 116 266 171 180 211 188 198 212 229 237 234 227 188 205 219 232 229 222 225 219 218 215 199 202 216 227 227 226 227 220 222 218 214 201 195 192 182 175 184 181 152 147 152 159 176 177 192 199 187 200 190 200 203 232 243 243 241 247 260 267 272 278 279 278 278 279 284 289 290 283 281 282 278 278 280 278 287 291 290 289 285
300 157 142 219 226 201 232 230 224 221 204 201 196 213 230 242 247 224 209 221 226 234 222 225 218 234 221 203 211 215 230 232 223 230 225 219 218 214 206 200 192 189 201 176 155 161 154 167 176 180 180 197 197 187 194 204 213 224 226 238 240 241 242 259 261 269 276 280 280 282 282 283 284 290 296 291 290 293 293 280 273 278 283 289 287 287
182 89 236 175 198 247 290 274 244 318 302 271 253 237 236 236 236 251 240 231 236 242 246 243 206 220 215 223 217 214 230 241 226 222 222 221 220 215 208 204 194 191 171 164 175 168 177 175 177 182 180 194 178 180 193 216 228 226 228 239 237 227 236 256 264 270 277 276 279 282 284 283 288 290 291 295 288 277 276 286 287 276 273 267 256 261
79 248 198 93 206 204 207 233 171 199 250 248 245 242 236 231 227 241 253 256 246 245 246 246 244 230 228 231 228 218 224 238 236 222 227 224 215 212 208 199 188 173 177 175 154 167 165 169 169 173 182 188 173 180 193 227 236 233 232 240 243 226 228 252 264 271 274 273 279 288 291 290 289 288 289 288 295 298 295 279 290 289 290 288 290 291
207 230 172 193 194 236 233 224 205 217 236 244 250 247 220 220 206 218 231 238 243 238 234 235 247 256 239 240 231 220 226 231 238 225 225 229 224 213 201 183 173 178 178 165 155 168 173 173 166 159 169 182 173 180 196 228 245 250 252 237 239 223 232 241 254 265 274 284 291 294 299 296 294 290 288 287 292 295 301 311 310 304 298 295 296 298